FW6582 Weather Reports


Display with metric or nautical units.
time (UTC)temp
F
wind
direction
speed
MPH
gust
MPH
rain 1hr
in
rain 24hr
in
rain mn
in
humidity
%
barometer
mb
20240724113016 60 315 2.0 4.0 0.00 0.00 0.00 52 1030.8
20240724111516 59 315 1.0 3.0 0.00 0.00 0.00 57 1030.7
20240724110036 59 293 1.0 3.0 0.00 0.00 0.00 56 1030.6
20240724104516 59 293 1.0 3.0 0.00 0.00 0.00 55 1030.1
20240724103017 58 293 1.0 3.0 0.00 0.00 0.00 56 1030.1
20240724101536 59 0.0 3.0 0.00 0.00 0.00 57 1030.4
20240724100036 59 293 1.0 3.0 0.00 0.00 0.00 54 1030.4
20240724094516 59 293 1.0 4.0 0.00 0.00 0.00 56 1030.4
20240724093016 59 203 1.0 4.0 0.00 0.00 0.00 56 1030.4
20240724091517 60 203 2.0 4.0 0.00 0.00 0.00 55 1030.2
20240724090016 59 293 2.0 5.0 0.00 0.00 0.00 54 1030.4
20240724084516 59 0.0 2.0 0.00 0.00 0.00 56 1029.9
20240724083016 59 293 1.0 3.0 0.00 0.00 0.00 56 1029.9
20240724081515 59 293 1.0 3.0 0.00 0.00 0.00 58 1030.2
20240724080015 60 293 1.0 3.0 0.00 0.00 0.00 55 1030.2
20240724074536 61 293 1.0 3.0 0.00 0.00 0.00 54 1029.7
20240724073015 60 0 1.0 6.0 0.00 0.00 0.00 56 1029.7
20240724071516 61 68 1.0 4.0 0.00 0.00 0.00 55 1029.7
20240724070015 62 68 1.0 3.0 0.00 0.00 0.00 53 1030.1
20240724064515 62 68 1.0 3.0 0.00 0.00 0.00 55 1030.1
20240724063016 62 68 1.0 3.0 0.00 0.00 0.00 51 1030.1
20240724061535 63 68 1.0 3.0 0.00 0.00 0.00 51 1029.8
20240724060015 64 68 1.0 3.0 0.00 0.00 0.00 50 1030.2
20240724054517 63 68 1.0 3.0 0.00 0.00 0.00 51 1029.7
20240724053037 63 0.0 2.0 0.00 0.00 0.00 51 1029.5
20240724051516 64 0.0 0.0 0.00 0.00 0.00 50 1029.3
20240724050017 64 0.0 0.0 0.00 0.00 0.00 51 1029.3
20240724044517 64 0.0 2.0 0.00 0.00 0.00 52 1029.3
20240724043017 64 0.0 0.0 0.00 0.00 0.00 50 1028.9
20240724041517 64 0.0 0.0 0.00 0.00 0.00 51 1028.9
20240724040016 65 0.0 0.0 0.00 0.00 0.00 51 1028.9
20240724034537 65 0.0 2.0 0.00 0.00 0.00 52 1028.4
20240724033017 65 0.0 0.0 0.00 0.00 0.00 50 1027.9
20240724031516 66 0.0 2.0 0.00 0.00 0.00 50 1028.0
20240724030017 67 0.0 0.0 0.00 0.00 0.00 47 1027.8
20240724024516 68 0.0 0.0 0.00 0.00 0.00 48 1027.3
20240724023016 69 0.0 0.0 0.00 0.00 0.00 48 1026.9
20240724021517 71 0.0 0.0 0.00 0.00 0.00 45 1027.3
20240724020016 72 0.0 0.0 0.00 0.00 0.00 46 1026.9
20240724014517 74 0.0 0.0 0.00 0.00 0.00 46 1026.9
20240724013016 74 0.0 1.0 0.00 0.00 0.00 45 1026.4
20240724011536 77 0.0 2.0 0.00 0.00 0.00 42 1026.8
20240724010016 79 0.0 1.0 0.00 0.00 0.00 39 1026.7
20240724004517 81 0.0 1.0 0.00 0.00 0.00 39 1027.2
20240724003016 83 0.0 0.0 0.00 0.00 0.00 35 1027.4
20240724001617 83 68 1.0 2.0 0.00 0.00 0.00 34 1027.0
20240724000017 82 0.0 1.0 0.00 0.00 0.00 39 1027.4
20240723234516 83 0.0 1.0 0.00 0.00 0.00 31 1027.0
20240723233037 83 68 1.0 3.0 0.00 0.00 0.00 29 1027.5
20240723231516 84 0.0 1.0 0.00 0.00 0.00 29 1027.4
20240723230016 83 68 1.0 3.0 0.00 0.00 0.00 26 1027.4
20240723224517 82 68 3.0 6.0 0.00 0.00 0.00 27 1026.9
20240723223016 83 45 3.0 10.0 0.00 0.00 0.00 28 1027.5
20240723221516 84 0 1.0 6.0 0.00 0.00 0.00 27 1027.8
20240723220016 83 90 2.0 8.0 0.00 0.00 0.00 27 1027.4
20240723214516 84 68 3.0 11.0 0.00 0.00 0.00 26 1027.9
20240723213016 83 68 3.0 10.0 0.00 0.00 0.00 26 1027.9
20240723211516 83 68 4.0 9.0 0.00 0.00 0.00 26 1028.0
20240723210056 83 68 4.0 9.0 0.00 0.00 0.00 26 1028.6
20240723204536 82 68 5.0 11.0 0.00 0.00 0.00 27 1028.4
20240723203016 82 23 4.0 15.0 0.00 0.00 0.00 27 1028.5
20240723201516 83 338 5.0 14.0 0.00 0.00 0.00 27 1028.9
20240723200016 82 203 3.0 12.0 0.00 0.00 0.00 26 1028.8
20240723194516 81 68 6.0 14.0 0.00 0.00 0.00 28 1028.5
20240723193036 81 68 5.0 13.0 0.00 0.00 0.00 27 1028.6
20240723191516 81 90 6.0 15.0 0.00 0.00 0.00 27 1028.6
20240723190036 81 45 4.0 14.0 0.00 0.00 0.00 27 1028.5
20240723184516 80 90 5.0 14.0 0.00 0.00 0.00 27 1028.6
20240723183016 80 90 4.0 14.0 0.00 0.00 0.00 28 1028.8
20240723181516 78 90 5.0 12.0 0.00 0.00 0.00 31 1028.8
20240723180038 79 68 4.0 10.0 0.00 0.00 0.00 32 1029.3
20240723174516 78 68 4.0 10.0 0.00 0.00 0.00 32 1029.3
20240723173017 78 113 4.0 9.0 0.00 0.00 0.00 35 1029.4
20240723171516 78 68 5.0 13.0 0.00 0.00 0.00 33 1029.5
20240723170016 77 68 4.0 9.0 0.00 0.00 0.00 35 1029.8
20240723164536 77 68 4.0 9.0 0.00 0.00 0.00 38 1029.9
20240723163016 75 68 5.0 10.0 0.00 0.00 0.00 41 1030.0
20240723161516 75 135 2.0 7.0 0.00 0.00 0.00 43 1029.9
20240723160056 74 135 1.0 4.0 0.00 0.00 0.00 43 1030.0
20240723154516 72 135 1.0 4.0 0.00 0.00 0.00 46 1029.6
20240723153016 70 135 2.0 5.0 0.00 0.00 0.00 44 1029.6
20240723151516 70 135 1.0 4.0 0.00 0.00 0.00 48 1029.7
20240723150016 70 0.0 3.0 0.00 0.00 0.00 50 1029.8
20240723144516 66 0.0 0.0 0.00 0.00 0.00 57 1029.4
20240723143016 64 0.0 0.0 0.00 0.00 0.00 57 1029.1
20240723141516 63 0.0 0.0 0.00 0.00 0.00 60 1029.0
20240723140056 60 0.0 0.0 0.00 0.00 0.00 68 1028.4
20240723134516 59 0.0 0.0 0.00 0.00 0.00 72 1028.5
20240723133016 56 0.0 0.0 0.00 0.00 0.00 75 1028.1
20240723131516 55 0.0 0.0 0.00 0.00 0.00 75 1027.9
20240723130016 54 0.0 0.0 0.00 0.00 0.00 71 1027.8
20240723124516 53 0.0 2.0 0.00 0.00 0.00 72 1027.8
20240723123016 53 0.0 1.0 0.00 0.00 0.00 71 1028.1
20240723121516 52 135 1.0 3.0 0.00 0.00 0.00 73 1027.8
20240723120016 52 0.0 2.0 0.00 0.00 0.00 73 1027.9
20240723114516 53 0.0 2.0 0.00 0.00 0.00 73 1027.8